ACA816 CYYZ-LIPZ

Flight info

Callsign ACA816
Flight time 8h 0m
Altitude 33000
Route VERDO7 LORKA Q907 MIILS N513A ALLRY/M084F350 DCT 51N050W 53N040W 55N030W 56N020W DCT PIKIL DCT SOVED/N0481F350 DCT ENULA DCT OLAPO DCT DEXEN/N0481F370 UY124 DOLOP DCT KEPAD L15 FINMA DCT CHT DCT ITVIP DCT KONAN DCT KOK DCT CIV DCT SUTAL DCT GTQ DCT DEVDI DCT ODINA DCT OSKOR/N0477F380 DCT NOBMI DCT ELTAR DCT IDREK DCT ADOSA L612 ALBET
Aircraft B77W/H-SDE1E2E3FGHIJ2J3J4J5M1RWXY/LB1D1

Departure

Time 2026-05-04 13:45
Airport Toronto Pearson International Airport (CYYZ)

Arrival

Time 2026-05-04 21:45
Airport Venice Marco Polo Airport (LIPZ)
Time Latitude Longitude Altitude Speed Heading
2026-05-04 13:19 43.67571 -79.61171 576 ft 0 kts
2026-05-04 13:36 43.67567 -79.61171 573 ft 3 kts
2026-05-04 13:36 43.67540 -79.61173 571 ft 3 kts
2026-05-04 13:36 43.67519 -79.61175 571 ft 4 kts 358°
2026-05-04 13:36 43.67492 -79.61171 571 ft 4 kts 346°
2026-05-04 13:37 43.67467 -79.61159 574 ft 4 kts 334°
2026-05-04 13:37 43.67455 -79.61151 574 ft 1 kts 330°
2026-05-04 13:39 43.67468 -79.61178 574 ft 7 kts 292°
2026-05-04 13:39 43.67490 -79.61282 569 ft 15 kts 287°
2026-05-04 13:39 43.67555 -79.61437 571 ft 22 kts 310°
2026-05-04 13:39 43.67642 -79.61564 570 ft 12 kts 309°
2026-05-04 13:40 43.67639 -79.61668 577 ft 14 kts 246°
2026-05-04 13:40 43.67677 -79.61789 577 ft 18 kts 315°
2026-05-04 13:40 43.67789 -79.61934 575 ft 25 kts 317°
2026-05-04 13:40 43.67952 -79.62095 571 ft 32 kts 331°
2026-05-04 13:41 43.68133 -79.62317 573 ft 37 kts 316°
2026-05-04 13:41 43.68318 -79.62540 574 ft 34 kts 317°
2026-05-04 13:41 43.68480 -79.62754 576 ft 32 kts 316°
2026-05-04 13:42 43.68788 -79.63153 573 ft 30 kts 316°
2026-05-04 13:42 43.68890 -79.63288 574 ft 30 kts 316°
2026-05-04 13:42 43.69041 -79.63486 575 ft 27 kts 316°
2026-05-04 13:42 43.69128 -79.63506 577 ft 13 kts 31°
2026-05-04 13:43 43.69204 -79.63437 575 ft 13 kts 18°
2026-05-04 13:43 43.69300 -79.63422 570 ft 15 kts
2026-05-04 13:43 43.69391 -79.63473 570 ft 15 kts 300°
2026-05-04 13:43 43.69336 -79.63616 572 ft 27 kts 226°
2026-05-04 13:44 43.69063 -79.64011 577 ft 91 kts 226°
2026-05-04 13:44 43.68470 -79.64869 584 ft 153 kts 226°
2026-05-04 13:44 43.67639 -79.66089 689 ft 188 kts 227°
2026-05-04 13:44 43.66719 -79.67449 1139 ft 197 kts 227°
2026-05-04 13:45 43.65644 -79.68516 1846 ft 197 kts 198°
2026-05-04 13:45 43.64223 -79.68339 2283 ft 222 kts 164°
2026-05-04 13:45 43.62903 -79.66947 2398 ft 256 kts 134°
2026-05-04 13:45 43.61656 -79.65129 2667 ft 265 kts 140°
2026-05-04 13:46 43.60578 -79.63006 3064 ft 282 kts 109°
2026-05-04 13:46 43.60495 -79.60310 3719 ft 285 kts 75°
2026-05-04 13:46 43.61168 -79.57741 4317 ft 288 kts 67°
2026-05-04 13:46 43.61926 -79.55142 4949 ft 292 kts 69°
2026-05-04 13:47 43.62638 -79.52497 5586 ft 296 kts 70°
2026-05-04 13:47 43.63304 -79.49784 6213 ft 301 kts 71°
2026-05-04 13:47 43.63931 -79.47019 6871 ft 302 kts 72°
2026-05-04 13:47 43.64518 -79.44265 7538 ft 303 kts 73°
2026-05-04 13:48 43.65094 -79.41442 8144 ft 307 kts 73°
2026-05-04 13:48 43.65658 -79.38586 8752 ft 310 kts 73°
2026-05-04 13:48 43.66217 -79.35700 9382 ft 312 kts 73°
2026-05-04 13:48 43.66772 -79.32795 9982 ft 315 kts 73°
2026-05-04 13:49 43.67341 -79.29797 10252 ft 332 kts 73°
2026-05-04 13:49 43.67941 -79.26619 10413 ft 352 kts 73°
2026-05-04 13:49 43.68576 -79.23243 10590 ft 373 kts 73°
2026-05-04 13:49 43.69245 -79.19667 10815 ft 392 kts 74°
2026-05-04 13:50 43.69924 -79.16015 11344 ft 402 kts 74°
2026-05-04 13:50 43.70626 -79.12233 12053 ft 408 kts 73°
2026-05-04 13:50 43.71331 -79.08422 12908 ft 411 kts 73°
2026-05-04 13:50 43.72044 -79.04564 13709 ft 416 kts 73°
2026-05-04 13:51 43.72761 -79.00677 14450 ft 419 kts 73°
2026-05-04 13:51 43.73483 -78.96760 15238 ft 422 kts 73°
2026-05-04 13:51 43.74207 -78.92822 16025 ft 424 kts 73°
2026-05-04 13:51 43.74936 -78.88854 16771 ft 428 kts 73°
2026-05-04 13:52 43.76408 -78.80813 18227 ft 435 kts 73°
2026-05-04 13:52 43.77238 -78.76777 18847 ft 437 kts 68°
2026-05-04 13:52 43.78373 -78.72877 19456 ft 438 kts 61°
2026-05-04 13:53 43.79702 -78.69069 20053 ft 441 kts 60°
2026-05-04 13:53 43.81057 -78.65239 20697 ft 444 kts 60°
2026-05-04 13:53 43.82418 -78.61383 21324 ft 447 kts 60°
2026-05-04 13:54 43.85150 -78.53566 22489 ft 455 kts 59°
2026-05-04 13:54 43.86526 -78.49591 23028 ft 459 kts 59°
2026-05-04 13:54 43.89293 -78.41543 24042 ft 465 kts 59°
2026-05-04 13:55 43.90669 -78.37525 24502 ft 468 kts 59°
2026-05-04 13:55 43.93480 -78.29302 25386 ft 475 kts 59°
2026-05-04 13:55 43.94898 -78.25145 25813 ft 478 kts 59°
2026-05-04 13:56 43.96323 -78.20963 26249 ft 481 kts 59°
2026-05-04 13:56 43.97756 -78.16749 26679 ft 484 kts 59°
2026-05-04 13:56 44.00636 -78.08263 27481 ft 490 kts 59°
2026-05-04 13:57 44.02090 -78.03968 27849 ft 493 kts 59°
2026-05-04 13:57 44.03506 -77.99780 28209 ft 496 kts 59°
2026-05-04 13:58 44.07925 -77.86663 29213 ft 504 kts 59°
2026-05-04 13:58 44.10904 -77.77781 29893 ft 507 kts 59°
2026-05-04 13:58 44.12392 -77.73333 30264 ft 506 kts 59°
2026-05-04 13:59 44.13874 -77.68891 30671 ft 504 kts 59°
2026-05-04 13:59 44.15348 -77.64471 31035 ft 504 kts 59°
2026-05-04 13:59 44.18298 -77.55612 31695 ft 504 kts 59°
2026-05-04 14:00 44.19782 -77.51192 31969 ft 502 kts 58°
2026-05-04 14:00 44.23251 -77.42931 32642 ft 495 kts 51°
2026-05-04 14:00 44.25111 -77.38872 32749 ft 498 kts 51°
2026-05-04 14:01 44.28849 -77.30720 32804 ft 498 kts 51°
2026-05-04 14:02 44.34354 -77.18494 32808 ft 494 kts 51°
2026-05-04 14:02 44.37983 -77.10361 32783 ft 493 kts 51°
2026-05-04 14:03 44.41604 -77.02222 32789 ft 493 kts 51°
2026-05-04 14:03 44.45165 -76.94201 32803 ft 494 kts 51°
2026-05-04 14:04 44.50595 -76.81929 32789 ft 495 kts 52°
2026-05-04 14:04 44.54220 -76.73705 32790 ft 496 kts 52°
2026-05-04 14:05 44.59658 -76.61324 32811 ft 498 kts 52°
2026-05-04 14:06 44.63285 -76.53036 32789 ft 499 kts 52°
2026-05-04 14:06 44.66889 -76.44775 32780 ft 499 kts 52°
2026-05-04 14:07 44.70507 -76.36456 32783 ft 499 kts 52°
2026-05-04 14:07 44.74121 -76.28127 32780 ft 498 kts 52°
2026-05-04 14:08 44.77507 -76.19565 32785 ft 506 kts 60°
2026-05-04 14:08 44.80002 -76.10226 32777 ft 510 kts 64°
2026-05-04 14:09 44.83510 -75.96296 32771 ft 510 kts 64°
2026-05-04 14:10 44.87113 -75.82243 32770 ft 510 kts 64°
2026-05-04 14:10 44.89530 -75.72833 32755 ft 511 kts 64°
2026-05-04 14:11 44.91941 -75.63402 32782 ft 511 kts 64°
2026-05-04 14:11 44.95541 -75.49231 32771 ft 511 kts 64°
2026-05-04 14:12 44.97929 -75.39781 32762 ft 511 kts 64°
2026-05-04 14:13 45.01492 -75.25612 32793 ft 511 kts 64°
2026-05-04 14:13 45.03847 -75.16197 32773 ft 512 kts 64°
2026-05-04 14:14 45.06215 -75.06691 32763 ft 512 kts 64°
2026-05-04 14:14 45.09692 -74.92660 32758 ft 511 kts 64°
2026-05-04 14:15 45.14404 -74.73633 32784 ft 511 kts 63°
2026-05-04 14:16 45.18205 -74.59527 32754 ft 511 kts 62°
2026-05-04 14:17 45.22011 -74.45411 32747 ft 511 kts 63°
2026-05-04 14:18 45.25750 -74.31299 32747 ft 512 kts 64°
2026-05-04 14:19 45.30745 -74.12287 32748 ft 515 kts 64°
2026-05-04 14:19 45.33239 -74.02745 32753 ft 515 kts 64°
2026-05-04 14:20 45.35676 -73.93379 32750 ft 516 kts 64°
2026-05-04 14:20 45.38158 -73.83803 32753 ft 515 kts 64°
2026-05-04 14:21 45.41848 -73.69497 32766 ft 516 kts 64°
2026-05-04 14:21 45.44310 -73.59904 32763 ft 516 kts 64°
2026-05-04 14:22 45.46767 -73.50289 32758 ft 516 kts 64°
2026-05-04 14:22 45.49219 -73.40651 32754 ft 517 kts 65°
2026-05-04 14:23 45.52881 -73.26184 32759 ft 517 kts 65°
2026-05-04 14:24 45.55315 -73.16519 32765 ft 518 kts 65°
2026-05-04 14:24 45.57745 -73.06831 32761 ft 518 kts 65°
2026-05-04 14:25 45.60132 -72.97270 32765 ft 519 kts 66°
2026-05-04 14:25 45.63751 -72.82699 32772 ft 519 kts 66°
2026-05-04 14:26 45.66144 -72.73013 32785 ft 520 kts 66°
2026-05-04 14:26 45.68546 -72.63250 32775 ft 520 kts 66°
2026-05-04 14:27 45.70940 -72.53474 32763 ft 521 kts 66°
2026-05-04 14:27 45.73327 -72.43685 32757 ft 522 kts 67°
2026-05-04 14:28 45.75711 -72.33864 32771 ft 523 kts 68°
2026-05-04 14:28 45.78095 -72.24003 32772 ft 524 kts 68°
2026-05-04 14:29 45.82446 -72.05891 32777 ft 525 kts 68°
2026-05-04 14:30 45.84770 -71.96159 32769 ft 525 kts 68°
2026-05-04 14:31 45.88303 -71.81274 32783 ft 526 kts 68°
2026-05-04 14:32 45.93004 -71.61317 32787 ft 528 kts 69°
2026-05-04 14:32 45.95327 -71.51386 32765 ft 527 kts 69°
2026-05-04 14:33 45.97653 -71.41398 32769 ft 527 kts 69°
2026-05-04 14:33 45.99969 -71.31406 32773 ft 527 kts 69°
2026-05-04 14:34 46.02274 -71.21418 32775 ft 527 kts 69°
2026-05-04 14:34 46.04573 -71.11407 32779 ft 527 kts 70°
2026-05-04 14:35 46.06868 -71.01369 32756 ft 527 kts 70°
2026-05-04 14:35 46.09109 -70.91518 32769 ft 526 kts 70°
2026-05-04 14:36 46.11378 -70.81500 32765 ft 526 kts 70°
2026-05-04 14:36 46.13624 -70.71540 32764 ft 525 kts 70°
2026-05-04 14:37 46.15873 -70.61520 32775 ft 525 kts 71°
2026-05-04 14:37 46.18111 -70.51495 32736 ft 524 kts 71°
2026-05-04 14:38 46.20333 -70.41495 32767 ft 523 kts 71°
2026-05-04 14:38 46.22546 -70.31495 32752 ft 523 kts 71°
2026-05-04 14:39 46.24743 -70.21481 32762 ft 522 kts 71°
2026-05-04 14:39 46.26883 -70.11455 32779 ft 522 kts 72°
2026-05-04 14:40 46.30010 -69.96641 32742 ft 522 kts 72°
2026-05-04 14:40 46.32126 -69.86593 32760 ft 522 kts 72°
2026-05-04 14:41 46.34237 -69.76534 32741 ft 522 kts 72°
2026-05-04 14:42 46.38431 -69.56400 32754 ft 522 kts 73°
2026-05-04 14:42 46.40516 -69.46310 32750 ft 523 kts 72°
2026-05-04 14:43 46.42593 -69.36209 32765 ft 523 kts 73°
2026-05-04 14:43 46.44663 -69.26090 32759 ft 523 kts 73°
2026-05-04 14:44 46.46725 -69.15962 32762 ft 523 kts 73°
2026-05-04 14:44 46.48767 -69.05879 32747 ft 524 kts 73°
2026-05-04 14:45 46.50769 -68.95946 32742 ft 523 kts 73°
2026-05-04 14:45 46.52802 -68.85808 32746 ft 523 kts 73°
2026-05-04 14:46 46.54822 -68.75678 32758 ft 522 kts 73°
2026-05-04 14:46 46.56832 -68.65547 32736 ft 522 kts 73°
2026-05-04 14:47 46.58832 -68.55416 32754 ft 521 kts 73°
2026-05-04 14:47 46.60821 -68.45288 32758 ft 520 kts 73°
2026-05-04 14:48 46.62794 -68.35185 32737 ft 518 kts 73°
2026-05-04 14:48 46.64750 -68.25117 32744 ft 516 kts 73°
2026-05-04 14:49 46.66693 -68.15068 32732 ft 515 kts 73°
2026-05-04 14:49 46.68623 -68.05033 32734 ft 514 kts 74°
2026-05-04 14:50 46.70512 -67.95162 32735 ft 515 kts 74°
2026-05-04 14:50 46.72413 -67.85173 32734 ft 515 kts 74°
2026-05-04 14:51 46.74319 -67.75110 32740 ft 515 kts 74°
2026-05-04 14:51 46.76223 -67.65039 32720 ft 515 kts 74°
2026-05-04 14:52 46.78118 -67.54963 32717 ft 515 kts 74°
2026-05-04 14:52 46.80006 -67.44874 32708 ft 515 kts 74°
2026-05-04 14:53 46.81883 -67.34786 32724 ft 514 kts 75°
2026-05-04 14:53 46.83736 -67.24768 32711 ft 514 kts 75°
2026-05-04 14:54 46.85590 -67.14696 32699 ft 513 kts 75°
2026-05-04 14:54 46.87552 -67.04652 32704 ft 513 kts 70°
2026-05-04 14:55 46.90367 -66.95331 32703 ft 511 kts 63°
2026-05-04 14:55 46.93484 -66.85986 32695 ft 512 kts 63°
2026-05-04 14:56 46.96589 -66.76582 32674 ft 515 kts 64°
2026-05-04 14:56 46.99671 -66.67101 32674 ft 516 kts 64°
2026-05-04 14:57 47.02735 -66.57585 32646 ft 515 kts 64°
2026-05-04 14:57 47.05770 -66.48121 32659 ft 510 kts 64°
2026-05-04 14:58 47.08780 -66.38708 32655 ft 511 kts 64°
2026-05-04 14:58 47.11802 -66.29228 32622 ft 513 kts 64°
2026-05-04 14:59 47.14795 -66.19804 32648 ft 512 kts 64°
2026-05-04 15:00 47.19308 -66.05529 32644 ft 513 kts 64°
2026-05-04 15:00 47.22250 -65.96175 32608 ft 512 kts 64°
2026-05-04 15:01 47.26697 -65.81974 32604 ft 509 kts 65°
2026-05-04 15:01 47.29651 -65.72495 32615 ft 509 kts 65°
2026-05-04 15:02 47.32605 -65.62989 32615 ft 511 kts 64°
2026-05-04 15:02 47.35568 -65.53415 32585 ft 514 kts 64°
2026-05-04 15:03 47.38513 -65.43849 32594 ft 509 kts 64°
2026-05-04 15:03 47.41420 -65.34380 32571 ft 503 kts 64°
2026-05-04 15:04 47.44312 -65.24923 32575 ft 507 kts 65°
2026-05-04 15:04 47.47225 -65.15366 32586 ft 513 kts 65°
2026-05-04 15:05 47.50162 -65.05690 32549 ft 516 kts 65°
2026-05-04 15:05 47.53041 -64.96169 32555 ft 514 kts 65°
2026-05-04 15:06 47.55922 -64.86599 32543 ft 509 kts 65°
2026-05-04 15:07 47.60220 -64.72253 32542 ft 509 kts 65°
2026-05-04 15:07 47.63089 -64.62640 32533 ft 511 kts 65°
2026-05-04 15:08 47.65966 -64.52961 32524 ft 514 kts 65°
2026-05-04 15:08 47.68841 -64.43245 32503 ft 515 kts 65°
2026-05-04 15:09 47.71709 -64.33511 32511 ft 515 kts 65°
2026-05-04 15:09 47.74571 -64.23763 32499 ft 514 kts 65°
2026-05-04 15:10 47.78840 -64.09153 32488 ft 513 kts 65°
2026-05-04 15:11 47.83029 -63.94727 32481 ft 513 kts 65°
2026-05-04 15:11 47.85832 -63.85027 32471 ft 513 kts 65°
2026-05-04 15:12 47.88639 -63.75272 32472 ft 512 kts 66°
2026-05-04 15:12 47.91434 -63.65521 32460 ft 511 kts 65°
2026-05-04 15:13 47.94218 -63.55766 32454 ft 511 kts 65°
2026-05-04 15:13 47.96997 -63.45994 32450 ft 512 kts 66°
2026-05-04 15:14 47.99766 -63.36214 32440 ft 511 kts 66°
2026-05-04 15:14 48.02518 -63.26458 32444 ft 511 kts 66°
2026-05-04 15:15 48.05260 -63.16697 32443 ft 512 kts 66°
2026-05-04 15:15 48.08006 -63.06880 32447 ft 512 kts 66°
2026-05-04 15:16 48.12077 -62.92255 32434 ft 515 kts 66°
2026-05-04 15:17 48.15729 -62.79061 32419 ft 514 kts 66°
2026-05-04 15:17 48.19805 -62.64238 32405 ft 512 kts 66°
2026-05-04 15:18 48.22514 -62.54335 32401 ft 513 kts 66°
2026-05-04 15:19 48.26579 -62.39403 32377 ft 517 kts 67°
2026-05-04 15:19 48.30611 -62.24495 32363 ft 514 kts 66°
2026-05-04 15:20 48.33291 -62.14531 32364 ft 515 kts 67°
2026-05-04 15:20 48.35964 -62.04555 32357 ft 513 kts 68°
2026-05-04 15:21 48.38572 -61.94776 32340 ft 514 kts 68°
2026-05-04 15:22 48.42538 -61.79827 32331 ft 510 kts 68°
2026-05-04 15:22 48.46475 -61.64896 32332 ft 511 kts 68°
2026-05-04 15:23 48.49085 -61.54942 32293 ft 509 kts 69°
2026-05-04 15:23 48.51682 -61.44993 32307 ft 512 kts 69°
2026-05-04 15:24 48.56905 -61.24853 32279 ft 519 kts 69°
2026-05-04 15:25 48.59502 -61.14778 32275 ft 508 kts 69°
2026-05-04 15:26 48.63283 -61.00024 32263 ft 503 kts 69°
2026-05-04 15:26 48.67049 -60.85227 32271 ft 512 kts 69°
2026-05-04 15:27 48.70864 -60.70147 32253 ft 511 kts 70°
2026-05-04 15:28 48.74624 -60.55183 32239 ft 504 kts 70°
2026-05-04 15:29 48.78349 -60.40256 32241 ft 507 kts 70°
2026-05-04 15:30 48.87077 -60.04892 32224 ft 511 kts 70°
2026-05-04 15:31 48.89498 -59.94982 32830 ft 508 kts 71°
2026-05-04 15:31 48.90707 -59.90018 33183 ft 506 kts 71°
2026-05-04 15:32 48.94353 -59.74977 33943 ft 503 kts 71°
2026-05-04 15:32 48.96768 -59.64955 34138 ft 506 kts 71°
2026-05-04 15:34 49.02785 -59.39783 34191 ft 506 kts 72°
2026-05-04 15:34 49.06369 -59.24653 34183 ft 505 kts 72°
2026-05-04 15:35 49.09909 -59.09603 34182 ft 504 kts 72°
2026-05-04 15:36 49.13398 -58.94669 34166 ft 503 kts 72°
2026-05-04 15:36 49.15738 -58.84593 34159 ft 503 kts 72°
2026-05-04 15:37 49.18070 -58.74502 34165 ft 504 kts 72°
2026-05-04 15:37 49.20398 -58.64381 34164 ft 505 kts 73°
2026-05-04 15:38 49.22719 -58.54243 34163 ft 506 kts 73°
2026-05-04 15:38 49.25039 -58.44065 34158 ft 507 kts 73°
2026-05-04 15:39 49.27354 -58.33857 34151 ft 507 kts 73°
2026-05-04 15:40 49.30798 -58.18581 34161 ft 505 kts 73°
2026-05-04 15:40 49.33080 -58.08396 34151 ft 505 kts 73°
2026-05-04 15:41 49.35311 -57.98391 34160 ft 506 kts 73°
2026-05-04 15:41 49.37565 -57.88234 34148 ft 507 kts 74°
2026-05-04 15:42 49.39826 -57.77995 34159 ft 506 kts 74°
2026-05-04 15:42 49.42076 -57.67755 34168 ft 506 kts 74°
2026-05-04 15:43 49.44319 -57.57499 34177 ft 506 kts 74°
2026-05-04 15:43 49.46551 -57.47241 34176 ft 506 kts 74°
2026-05-04 15:44 49.48773 -57.36981 34164 ft 505 kts 75°
2026-05-04 15:44 49.50981 -57.26731 34179 ft 505 kts 75°
2026-05-04 15:45 49.53182 -57.16459 34184 ft 505 kts 75°
2026-05-04 15:45 49.55374 -57.06181 34188 ft 505 kts 75°
2026-05-04 15:46 49.57498 -56.96169 34177 ft 505 kts 75°
2026-05-04 15:46 49.59673 -56.85871 34185 ft 504 kts 76°
2026-05-04 15:47 49.61833 -56.75591 34195 ft 504 kts 76°
2026-05-04 15:47 49.63981 -56.65309 34173 ft 503 kts 76°
2026-05-04 15:48 49.66123 -56.55009 34196 ft 504 kts 76°
2026-05-04 15:48 49.69331 -56.39475 34186 ft 507 kts 76°
2026-05-04 15:49 49.71461 -56.29096 34203 ft 507 kts 77°
2026-05-04 15:49 49.73586 -56.18690 34209 ft 508 kts 77°
2026-05-04 15:50 49.75700 -56.08283 34209 ft 507 kts 77°
2026-05-04 15:50 49.77749 -55.98145 34219 ft 507 kts 77°
2026-05-04 15:51 49.79841 -55.87741 34201 ft 506 kts 77°
2026-05-04 15:51 49.81923 -55.77323 34225 ft 505 kts 77°
2026-05-04 15:52 49.83992 -55.66922 34230 ft 504 kts 77°
2026-05-04 15:52 49.86046 -55.56534 34235 ft 504 kts 77°
2026-05-04 15:53 49.88086 -55.46159 34243 ft 503 kts 77°
2026-05-04 15:53 49.90117 -55.35781 34238 ft 502 kts 78°
2026-05-04 15:54 49.92136 -55.25405 34245 ft 502 kts 78°
2026-05-04 15:54 49.94144 -55.15034 34251 ft 502 kts 78°
2026-05-04 15:55 49.96143 -55.04648 34256 ft 502 kts 78°
2026-05-04 15:55 49.98097 -54.94440 34270 ft 502 kts 79°
2026-05-04 15:56 50.00061 -54.84126 34277 ft 502 kts 79°
2026-05-04 15:56 50.02032 -54.73719 34286 ft 501 kts 79°
2026-05-04 15:57 50.03991 -54.63319 34286 ft 501 kts 79°
2026-05-04 15:57 50.05941 -54.52906 34307 ft 500 kts 79°
2026-05-04 15:58 50.07878 -54.42507 34279 ft 500 kts 79°
2026-05-04 15:58 50.09802 -54.32121 34306 ft 498 kts 80°
2026-05-04 15:59 50.11713 -54.21741 34316 ft 498 kts 80°
2026-05-04 15:59 50.13602 -54.11422 34339 ft 497 kts 80°
2026-05-04 16:00 50.15490 -54.01054 34338 ft 497 kts 80°
2026-05-04 16:00 50.17334 -53.90870 34358 ft 497 kts 81°
2026-05-04 16:01 50.19203 -53.80484 34355 ft 497 kts 81°
2026-05-04 16:01 50.21064 -53.70089 34366 ft 497 kts 81°
2026-05-04 16:02 50.22919 -53.59672 34372 ft 497 kts 81°
2026-05-04 16:03 50.25666 -53.44122 34376 ft 497 kts 81°
2026-05-04 16:03 50.27197 -53.35399 34375 ft 497 kts 82°
2026-05-04 16:04 50.29013 -53.25000 34392 ft 495 kts 82°
2026-05-04 16:04 50.31711 -53.09429 34405 ft 493 kts 82°
2026-05-04 16:05 50.33448 -52.99327 34421 ft 492 kts 82°
2026-05-04 16:06 50.36096 -52.83816 34415 ft 490 kts 83°
2026-05-04 16:07 50.39571 -52.63264 34439 ft 486 kts 84°
2026-05-04 16:08 50.42983 -52.42820 34452 ft 484 kts 84°
2026-05-04 16:09 50.47187 -52.17305 34459 ft 482 kts 85°
2026-05-04 16:10 50.50658 -51.97168 34473 ft 489 kts 79°
2026-05-04 16:11 50.55851 -51.77387 34450 ft 490 kts 77°
2026-05-04 16:12 50.63502 -51.47753 34512 ft 484 kts 78°
2026-05-04 16:13 50.68503 -51.28072 34515 ft 481 kts 78°
2026-05-04 16:14 50.73433 -51.08511 34495 ft 479 kts 78°
2026-05-04 16:16 50.79492 -50.84214 34547 ft 481 kts 79°
2026-05-04 16:17 50.85589 -50.59527 34568 ft 481 kts 79°
2026-05-04 16:18 50.90411 -50.39795 34547 ft 477 kts 79°
2026-05-04 16:19 50.96290 -50.15490 34590 ft 471 kts 79°
2026-05-04 16:20 51.02123 -49.91407 34586 ft 477 kts 77°
2026-05-04 16:21 51.05877 -49.76548 34624 ft 488 kts 77°
2026-05-04 16:22 51.08405 -49.66500 34629 ft 489 kts 77°
2026-05-04 16:23 51.15892 -49.36283 34636 ft 490 kts 78°
2026-05-04 16:25 51.23339 -49.05756 34651 ft 496 kts 79°
2026-05-04 16:26 51.31937 -48.70014 34670 ft 496 kts 78°
2026-05-04 16:28 51.38086 -48.44041 34676 ft 507 kts 78°
2026-05-04 16:29 51.46780 -48.06868 34682 ft 507 kts 78°
2026-05-04 16:31 51.52808 -47.80672 34696 ft 499 kts 77°
2026-05-04 16:32 51.59896 -47.49409 34725 ft 505 kts 77°
2026-05-04 16:33 51.64672 -47.28140 34718 ft 503 kts 77°
2026-05-04 16:34 51.68185 -47.12345 34722 ft 500 kts 77°
2026-05-04 16:35 51.75123 -46.80751 34768 ft 504 kts 77°
2026-05-04 16:36 51.78611 -46.64692 34763 ft 506 kts 77°
2026-05-04 16:37 51.82087 -46.48564 34790 ft 507 kts 77°
2026-05-04 16:38 51.86682 -46.27050 34799 ft 508 kts 77°
2026-05-04 16:39 51.92394 -45.99969 34830 ft 510 kts 77°
2026-05-04 16:40 51.96905 -45.78329 34839 ft 511 kts 77°
2026-05-04 16:41 52.02533 -45.50987 34868 ft 514 kts 76°
2026-05-04 16:43 52.08156 -45.23297 34872 ft 517 kts 75°
2026-05-04 16:43 52.11503 -45.06635 34906 ft 516 kts 75°
2026-05-04 16:45 52.18044 -44.73635 34915 ft 513 kts 75°
2026-05-04 16:46 52.23441 -44.45973 34951 ft 512 kts 75°
2026-05-04 16:47 52.27700 -44.23861 34977 ft 514 kts 74°
2026-05-04 16:48 52.31971 -44.01421 34954 ft 517 kts 75°
2026-05-04 16:49 52.36139 -43.79266 34983 ft 513 kts 75°
2026-05-04 16:50 52.39941 -43.58819 35000 ft 513 kts 74°
2026-05-04 16:51 52.43038 -43.41995 35012 ft 516 kts 74°
2026-05-04 16:52 52.47152 -43.19406 35014 ft 518 kts 73°
2026-05-04 16:53 52.50223 -43.02365 35042 ft 520 kts 73°
2026-05-04 16:54 52.54255 -42.79747 35045 ft 521 kts 73°
2026-05-04 16:55 52.60279 -42.45407 35079 ft 520 kts 73°
2026-05-04 16:56 52.65201 -42.16837 35099 ft 520 kts 73°
2026-05-04 16:57 52.68101 -41.99795 35106 ft 519 kts 73°
2026-05-04 16:58 52.71950 -41.76908 35117 ft 520 kts 73°
2026-05-04 17:00 52.77649 -41.42447 35141 ft 517 kts 73°
2026-05-04 17:01 52.82300 -41.13801 35165 ft 517 kts 73°
2026-05-04 17:02 52.85939 -40.91046 35174 ft 520 kts 73°
2026-05-04 17:03 52.88688 -40.73637 35177 ft 521 kts 73°
2026-05-04 17:03 52.91425 -40.56131 35195 ft 525 kts 73°
2026-05-04 17:04 52.95055 -40.32605 35206 ft 528 kts 73°
2026-05-04 17:05 52.98641 -40.09037 35220 ft 528 kts 72°
2026-05-04 17:06 53.01902 -39.91924 35229 ft 521 kts 63°
2026-05-04 17:07 53.05681 -39.77194 35228 ft 520 kts 63°
2026-05-04 17:07 53.08975 -39.64221 35252 ft 521 kts 62°
2026-05-04 17:08 53.13125 -39.47514 35250 ft 521 kts 63°
2026-05-04 17:09 53.15873 -39.36341 35249 ft 521 kts 63°
2026-05-04 17:09 53.18609 -39.25167 35259 ft 521 kts 63°
2026-05-04 17:10 53.25350 -38.97425 35265 ft 521 kts 63°
2026-05-04 17:11 53.28057 -38.86185 35267 ft 522 kts 63°
2026-05-04 17:12 53.32099 -38.69283 35282 ft 522 kts 62°
2026-05-04 17:13 53.38768 -38.41112 35281 ft 521 kts 62°
2026-05-04 17:14 53.44055 -38.18515 35293 ft 519 kts 62°
2026-05-04 17:15 53.47973 -38.01614 35293 ft 517 kts 62°
2026-05-04 17:16 53.53090 -37.79336 35348 ft 516 kts 62°
2026-05-04 17:17 53.58207 -37.56820 35312 ft 514 kts 62°
2026-05-04 17:18 53.63252 -37.34386 35322 ft 513 kts 62°
2026-05-04 17:19 53.68264 -37.11853 35324 ft 512 kts 62°
2026-05-04 17:20 53.73169 -36.89565 35328 ft 511 kts 62°
2026-05-04 17:20 53.76853 -36.72672 35340 ft 511 kts 63°
2026-05-04 17:21 53.81701 -36.50209 35330 ft 509 kts 63°
2026-05-04 17:22 53.84125 -36.38887 35346 ft 508 kts 63°
2026-05-04 17:23 53.88893 -36.16438 35345 ft 507 kts 64°
2026-05-04 17:24 53.92401 -35.99757 35353 ft 506 kts 65°
2026-05-04 17:25 53.97084 -35.77279 35358 ft 506 kts 66°
2026-05-04 17:26 54.01721 -35.54757 35354 ft 504 kts 66°
2026-05-04 17:27 54.07448 -35.26591 35366 ft 503 kts 67°
2026-05-04 17:28 54.11955 -35.04141 35364 ft 502 kts 67°
2026-05-04 17:29 54.18613 -34.70493 35377 ft 501 kts 68°
2026-05-04 17:31 54.24111 -34.42258 35367 ft 502 kts 68°
2026-05-04 17:32 54.29566 -34.13832 35369 ft 503 kts 68°
2026-05-04 17:33 54.33845 -33.91229 35368 ft 504 kts 69°
2026-05-04 17:34 54.38126 -33.68342 35369 ft 504 kts 69°
2026-05-04 17:35 54.43400 -33.39750 35376 ft 503 kts 69°
2026-05-04 17:36 54.45495 -33.28270 35378 ft 503 kts 70°
2026-05-04 17:36 54.47243 -33.18640 35375 ft 503 kts 70°
2026-05-04 17:37 54.49306 -33.07205 35371 ft 503 kts 70°
2026-05-04 17:37 54.51322 -32.95956 35376 ft 503 kts 70°
2026-05-04 17:38 54.53374 -32.84444 35389 ft 503 kts 70°
2026-05-04 17:38 54.55418 -32.72901 35379 ft 504 kts 70°
2026-05-04 17:39 54.58464 -32.55558 35375 ft 504 kts 70°
2026-05-04 17:39 54.60482 -32.43974 35375 ft 504 kts 71°
2026-05-04 17:40 54.62488 -32.32387 35390 ft 504 kts 71°
2026-05-04 17:40 54.64472 -32.20852 35371 ft 505 kts 71°
2026-05-04 17:41 54.66462 -32.09206 35379 ft 506 kts 71°
2026-05-04 17:41 54.68401 -31.97783 35372 ft 506 kts 71°
2026-05-04 17:42 54.70371 -31.86099 35372 ft 507 kts 71°
2026-05-04 17:42 54.72332 -31.74393 35377 ft 507 kts 72°
2026-05-04 17:43 54.74284 -31.62661 35371 ft 508 kts 72°
2026-05-04 17:43 54.76227 -31.50904 35372 ft 508 kts 72°
2026-05-04 17:44 54.78159 -31.39135 35374 ft 508 kts 72°
2026-05-04 17:44 54.80078 -31.27366 35387 ft 508 kts 72°
2026-05-04 17:45 54.81985 -31.15582 35370 ft 508 kts 73°
2026-05-04 17:45 54.83882 -31.03781 35370 ft 508 kts 73°
2026-05-04 17:46 54.85732 -30.92195 35371 ft 508 kts 73°
2026-05-04 17:46 54.87607 -30.80368 35367 ft 508 kts 73°
2026-05-04 17:47 54.89461 -30.68593 35375 ft 508 kts 73°
2026-05-04 17:47 54.91312 -30.56748 35366 ft 508 kts 73°
2026-05-04 17:48 54.93155 -30.44875 35367 ft 508 kts 73°
2026-05-04 17:48 54.94982 -30.33016 35369 ft 508 kts 73°
2026-05-04 17:49 54.96800 -30.21134 35377 ft 508 kts 74°
2026-05-04 17:49 54.98608 -30.09235 35366 ft 508 kts 74°
2026-05-04 17:50 55.00361 -29.97595 35364 ft 508 kts 75°
2026-05-04 17:50 55.02084 -29.85668 35361 ft 508 kts 75°
2026-05-04 17:51 55.03761 -29.73777 35361 ft 508 kts 75°
2026-05-04 17:51 55.05441 -29.61812 35364 ft 508 kts 75°
2026-05-04 17:52 55.07116 -29.49838 35359 ft 508 kts 76°
2026-05-04 17:52 55.08783 -29.37854 35361 ft 508 kts 76°
2026-05-04 17:53 55.10437 -29.25866 35357 ft 508 kts 76°
2026-05-04 17:53 55.12080 -29.13864 35358 ft 508 kts 76°
2026-05-04 17:54 55.13708 -29.01866 35358 ft 508 kts 76°
2026-05-04 17:54 55.15292 -28.90109 35358 ft 508 kts 76°
2026-05-04 17:55 55.16898 -28.78085 35359 ft 508 kts 76°
2026-05-04 17:55 55.18491 -28.66057 35367 ft 508 kts 76°
2026-05-04 17:56 55.20065 -28.54085 35356 ft 508 kts 76°
2026-05-04 17:56 55.21646 -28.41951 35352 ft 508 kts 77°
2026-05-04 17:57 55.23196 -28.29958 35350 ft 508 kts 77°
2026-05-04 17:57 55.24743 -28.17883 35349 ft 508 kts 77°
2026-05-04 17:58 55.26278 -28.05803 35343 ft 508 kts 77°
2026-05-04 17:58 55.27771 -27.93955 35344 ft 508 kts 77°
2026-05-04 17:59 55.29282 -27.81855 35345 ft 508 kts 77°
2026-05-04 18:00 55.31530 -27.63657 35351 ft 508 kts 77°
2026-05-04 18:00 55.33016 -27.51499 35332 ft 509 kts 78°
2026-05-04 18:01 55.34488 -27.39342 35348 ft 509 kts 78°
2026-05-04 18:01 55.35951 -27.27153 35346 ft 510 kts 78°
2026-05-04 18:02 55.38116 -27.08912 35342 ft 511 kts 78°
2026-05-04 18:02 55.39514 -26.96999 35345 ft 511 kts 78°
2026-05-04 18:03 55.40938 -26.84754 35339 ft 511 kts 78°
2026-05-04 18:03 55.42349 -26.72502 35338 ft 511 kts 78°
2026-05-04 18:04 55.43750 -26.60231 35331 ft 510 kts 78°
2026-05-04 18:05 55.45822 -26.41848 35334 ft 510 kts 78°
2026-05-04 18:05 55.47189 -26.29581 35332 ft 510 kts 78°
2026-05-04 18:06 55.49217 -26.11160 35329 ft 510 kts 79°
2026-05-04 18:06 55.50516 -25.99214 35323 ft 510 kts 79°
2026-05-04 18:07 55.51838 -25.86932 35326 ft 510 kts 79°
2026-05-04 18:07 55.53141 -25.74712 35322 ft 510 kts 79°
2026-05-04 18:08 55.54439 -25.62408 35322 ft 509 kts 79°
2026-05-04 18:08 55.55724 -25.50109 35323 ft 509 kts 79°
2026-05-04 18:09 55.58260 -25.25462 35319 ft 510 kts 79°
2026-05-04 18:10 55.59507 -25.13139 35303 ft 510 kts 79°
2026-05-04 18:10 55.60745 -25.00789 35308 ft 510 kts 79°
2026-05-04 18:11 55.61945 -24.88681 35308 ft 510 kts 79°
2026-05-04 18:11 55.63160 -24.76297 35314 ft 510 kts 79°
2026-05-04 18:12 55.64353 -24.63996 35306 ft 511 kts 79°
2026-05-04 18:12 55.65545 -24.51578 35304 ft 511 kts 79°
2026-05-04 18:13 55.66724 -24.39152 35305 ft 511 kts 79°
2026-05-04 18:14 55.68468 -24.20510 35306 ft 511 kts 79°
2026-05-04 18:14 55.69614 -24.08086 35303 ft 511 kts 80°
2026-05-04 18:15 55.71846 -23.83461 35297 ft 510 kts 80°
2026-05-04 18:16 55.72946 -23.71106 35297 ft 510 kts 80°
2026-05-04 18:16 55.74047 -23.58593 35294 ft 510 kts 80°
2026-05-04 18:17 55.75659 -23.40002 35293 ft 510 kts 81°
2026-05-04 18:18 55.77249 -23.21310 35296 ft 510 kts 81°
2026-05-04 18:18 55.78293 -23.08854 35302 ft 510 kts 81°
2026-05-04 18:19 55.79817 -22.90369 35283 ft 510 kts 81°
2026-05-04 18:19 55.80830 -22.77886 35284 ft 509 kts 81°
2026-05-04 18:20 55.81829 -22.65411 35268 ft 509 kts 81°
2026-05-04 18:20 55.82809 -22.53012 35280 ft 509 kts 81°
2026-05-04 18:21 55.83782 -22.40538 35290 ft 509 kts 81°
2026-05-04 18:21 55.84743 -22.28051 35277 ft 509 kts 81°
2026-05-04 18:22 55.85691 -22.15563 35278 ft 509 kts 81°
2026-05-04 18:22 55.86626 -22.03067 35280 ft 509 kts 81°
2026-05-04 18:23 55.87376 -21.92915 35282 ft 508 kts 81°
2026-05-04 18:23 55.88286 -21.80445 35276 ft 508 kts 81°
2026-05-04 18:24 55.89183 -21.67968 35277 ft 507 kts 81°
2026-05-04 18:24 55.90066 -21.55512 35274 ft 507 kts 82°
2026-05-04 18:25 55.90936 -21.43048 35273 ft 506 kts 82°
2026-05-04 18:25 55.91793 -21.30595 35280 ft 506 kts 82°
2026-05-04 18:26 55.92635 -21.18158 35263 ft 505 kts 82°
2026-05-04 18:26 55.93464 -21.05740 35264 ft 504 kts 82°
2026-05-04 18:27 55.94263 -20.93579 35267 ft 503 kts 82°
2026-05-04 18:27 55.95065 -20.81168 35256 ft 503 kts 82°
2026-05-04 18:28 55.95850 -20.68844 35257 ft 503 kts 83°
2026-05-04 18:28 55.96625 -20.56454 35254 ft 502 kts 83°
2026-05-04 18:29 55.97389 -20.44056 35256 ft 502 kts 83°
2026-05-04 18:29 55.98139 -20.31672 35253 ft 501 kts 83°
2026-05-04 18:30 55.99241 -20.13095 35256 ft 501 kts 83°
2026-05-04 18:31 55.99957 -20.00710 35252 ft 501 kts 84°
2026-05-04 18:31 56.00307 -19.88556 35248 ft 501 kts 88°
2026-05-04 18:32 56.00499 -19.76176 35244 ft 501 kts 88°
2026-05-04 18:32 56.00685 -19.63643 35249 ft 501 kts 87°
2026-05-04 18:33 56.00884 -19.51170 35243 ft 502 kts 87°
2026-05-04 18:33 56.01082 -19.38696 35246 ft 502 kts 87°
2026-05-04 18:34 56.01269 -19.26204 35245 ft 503 kts 88°
2026-05-04 18:34 56.01441 -19.13792 35245 ft 503 kts 88°
2026-05-04 18:35 56.01600 -19.01287 35249 ft 503 kts 87°
2026-05-04 18:35 56.01744 -18.89026 35239 ft 504 kts 87°
2026-05-04 18:36 56.01879 -18.76504 35237 ft 504 kts 88°
2026-05-04 18:36 56.02001 -18.63975 35235 ft 504 kts 88°
2026-05-04 18:37 56.02110 -18.51440 35230 ft 504 kts 88°
2026-05-04 18:37 56.02206 -18.38899 35245 ft 504 kts 88°
2026-05-04 18:38 56.02290 -18.26354 35231 ft 504 kts 88°
2026-05-04 18:38 56.02361 -18.13828 35229 ft 504 kts 88°
2026-05-04 18:39 56.02419 -18.01295 35230 ft 503 kts 88°
2026-05-04 18:39 56.02464 -17.89018 35225 ft 503 kts 88°
2026-05-04 18:40 56.02498 -17.76506 35230 ft 503 kts 88°
2026-05-04 18:40 56.02518 -17.64009 35217 ft 503 kts 88°
2026-05-04 18:41 56.02526 -17.51566 35225 ft 503 kts 88°
2026-05-04 18:41 56.02521 -17.39060 35217 ft 503 kts 89°
2026-05-04 18:42 56.02504 -17.26553 35240 ft 503 kts 89°
2026-05-04 18:42 56.02474 -17.14054 35224 ft 503 kts 89°
2026-05-04 18:43 56.02431 -17.01542 35215 ft 503 kts 89°
2026-05-04 18:43 56.02377 -16.89288 35218 ft 503 kts 89°
2026-05-04 18:44 56.02309 -16.76771 35217 ft 503 kts 89°
2026-05-04 18:44 56.02229 -16.64329 35236 ft 503 kts 89°
2026-05-04 18:45 56.02136 -16.51809 35211 ft 503 kts 90°
2026-05-04 18:45 56.02030 -16.39287 35208 ft 503 kts 90°
2026-05-04 18:46 56.01912 -16.26786 35202 ft 502 kts 90°
2026-05-04 18:46 56.01781 -16.14290 35208 ft 502 kts 90°
2026-05-04 18:47 56.01638 -16.01829 35217 ft 502 kts 90°
2026-05-04 18:47 56.01486 -15.89604 35204 ft 502 kts 90°
2026-05-04 18:48 56.01318 -15.77132 35210 ft 501 kts 90°
2026-05-04 18:48 56.01137 -15.64669 35203 ft 501 kts 90°
2026-05-04 18:49 56.00944 -15.52218 35193 ft 501 kts 90°
2026-05-04 18:49 56.00739 -15.39771 35199 ft 501 kts 91°
2026-05-04 18:50 56.00521 -15.27317 35192 ft 501 kts 91°
2026-05-04 18:50 56.00292 -15.14933 35194 ft 501 kts 91°
2026-05-04 18:51 56.00051 -15.02484 35192 ft 501 kts 91°
2026-05-04 18:51 55.99931 -14.90309 35190 ft 501 kts 88°
2026-05-04 18:52 56.00020 -14.77853 35198 ft 501 kts 88°
2026-05-04 18:52 56.00089 -14.65379 35185 ft 502 kts 89°
2026-05-04 18:53 56.00105 -14.52908 35178 ft 502 kts 89°
2026-05-04 18:53 56.00097 -14.40434 35184 ft 502 kts 89°
2026-05-04 18:54 56.00080 -14.27963 35176 ft 502 kts 90°
2026-05-04 18:54 56.00054 -14.15480 35174 ft 503 kts 90°
2026-05-04 18:55 55.99614 -14.03036 35175 ft 502 kts 102°
2026-05-04 18:55 55.97463 -13.91530 35175 ft 501 kts 118°
2026-05-04 18:55 55.95788 -13.86087 35180 ft 500 kts 121°
2026-05-04 18:56 55.92296 -13.75330 35173 ft 501 kts 121°
2026-05-04 18:56 55.88797 -13.64547 35173 ft 502 kts 121°
2026-05-04 18:57 55.85326 -13.53726 35169 ft 503 kts 121°
2026-05-04 18:57 55.81864 -13.42904 35158 ft 503 kts 121°
2026-05-04 18:58 55.78398 -13.32106 35161 ft 502 kts 121°
2026-05-04 18:58 55.74944 -13.21406 35165 ft 502 kts 121°
2026-05-04 18:59 55.71464 -13.10676 35154 ft 502 kts 121°
2026-05-04 18:59 55.67977 -12.99977 35157 ft 501 kts 121°
2026-05-04 19:00 55.64534 -12.89458 35160 ft 501 kts 121°
2026-05-04 19:00 55.61029 -12.78798 35156 ft 501 kts 121°
2026-05-04 19:01 55.57515 -12.68156 35158 ft 501 kts 121°
2026-05-04 19:01 55.53994 -12.57539 35158 ft 500 kts 121°
2026-05-04 19:02 55.50464 -12.46943 35153 ft 500 kts 121°
2026-05-04 19:02 55.46953 -12.36448 35152 ft 500 kts 122°
2026-05-04 19:03 55.43408 -12.25896 35153 ft 500 kts 122°
2026-05-04 19:03 55.39850 -12.15355 35148 ft 501 kts 122°
2026-05-04 19:04 55.36285 -12.04837 35153 ft 501 kts 122°
2026-05-04 19:04 55.32780 -11.94540 35149 ft 501 kts 122°
2026-05-04 19:05 55.29194 -11.84052 35149 ft 501 kts 122°
2026-05-04 19:05 55.25602 -11.73591 35143 ft 501 kts 122°
2026-05-04 19:06 55.21995 -11.63129 35132 ft 501 kts 122°
2026-05-04 19:06 55.18382 -11.52698 35141 ft 501 kts 123°
2026-05-04 19:07 55.15374 -11.44045 35143 ft 501 kts 123°
2026-05-04 19:07 55.11155 -11.31961 35141 ft 501 kts 123°
2026-05-04 19:08 55.07516 -11.21588 35145 ft 501 kts 123°
2026-05-04 19:08 55.04460 -11.12909 35143 ft 501 kts 123°
2026-05-04 19:09 55.00806 -11.02571 35134 ft 501 kts 123°
2026-05-04 19:09 54.97234 -10.92509 35139 ft 500 kts 123°
2026-05-04 19:10 54.94159 -10.83878 35141 ft 500 kts 123°
2026-05-04 19:10 54.89893 -10.71957 35141 ft 500 kts 123°
2026-05-04 19:11 54.86207 -10.61702 35141 ft 500 kts 123°
2026-05-04 19:11 54.82519 -10.51484 35137 ft 500 kts 123°
2026-05-04 19:12 54.76968 -10.36186 35139 ft 499 kts 123°
2026-05-04 19:13 54.73264 -10.26029 35141 ft 499 kts 123°
2026-05-04 19:13 54.69551 -10.15889 35135 ft 499 kts 123°
2026-05-04 19:14 54.65831 -10.05773 35137 ft 499 kts 123°
2026-05-04 19:14 54.62172 -9.95861 35139 ft 498 kts 124°
2026-05-04 19:15 54.58438 -9.85788 35125 ft 498 kts 123°
2026-05-04 19:15 54.54701 -9.75747 35123 ft 498 kts 123°
2026-05-04 19:16 54.50956 -9.65726 35134 ft 497 kts 123°
2026-05-04 19:16 54.47203 -9.55725 35136 ft 497 kts 123°
2026-05-04 19:17 54.43444 -9.45748 35120 ft 497 kts 124°
2026-05-04 19:17 54.39682 -9.35802 35117 ft 496 kts 124°
2026-05-04 19:18 54.35941 -9.25949 35127 ft 496 kts 123°
2026-05-04 19:18 54.32171 -9.16061 35122 ft 495 kts 123°
2026-05-04 19:19 54.28390 -9.06184 35125 ft 495 kts 123°
2026-05-04 19:19 54.24676 -8.96521 35122 ft 495 kts 124°
2026-05-04 19:20 54.20889 -8.86704 35136 ft 494 kts 124°
2026-05-04 19:20 54.17096 -8.76909 35124 ft 494 kts 123°
2026-05-04 19:21 54.13282 -8.67102 35485 ft 495 kts 123°
2026-05-04 19:21 54.11383 -8.62231 35862 ft 492 kts 123°
2026-05-04 19:21 54.09491 -8.57388 36244 ft 490 kts 123°
2026-05-04 19:21 54.07605 -8.52569 36574 ft 488 kts 124°
2026-05-04 19:22 54.05719 -8.47761 36866 ft 488 kts 124°
2026-05-04 19:22 54.03831 -8.42954 37038 ft 489 kts 124°
2026-05-04 19:22 54.01935 -8.38134 37087 ft 491 kts 124°
2026-05-04 19:23 53.98269 -8.28445 37095 ft 489 kts 118°
2026-05-04 19:23 53.95534 -8.17921 37103 ft 486 kts 107°
2026-05-04 19:24 53.93451 -8.07040 37101 ft 484 kts 107°
2026-05-04 19:24 53.91414 -7.96436 37099 ft 482 kts 107°
2026-05-04 19:25 53.89295 -7.85649 37108 ft 482 kts 108°
2026-05-04 19:25 53.87155 -7.74897 37096 ft 481 kts 108°
2026-05-04 19:26 53.85004 -7.64147 37103 ft 481 kts 108°
2026-05-04 19:26 53.82845 -7.53405 37092 ft 482 kts 108°
2026-05-04 19:27 53.80675 -7.42663 37090 ft 482 kts 108°
2026-05-04 19:27 53.78494 -7.31922 37096 ft 483 kts 108°
2026-05-04 19:28 53.75915 -7.21445 37102 ft 483 kts 113°
2026-05-04 19:28 53.73099 -7.11158 37080 ft 482 kts 114°
2026-05-04 19:29 53.70284 -7.00885 37083 ft 481 kts 114°
2026-05-04 19:29 53.67556 -6.90881 37086 ft 479 kts 113°
2026-05-04 19:30 53.64772 -6.80679 37079 ft 479 kts 114°
2026-05-04 19:30 53.61983 -6.70501 37089 ft 478 kts 114°
2026-05-04 19:31 53.59186 -6.60342 37084 ft 478 kts 114°
2026-05-04 19:31 53.56378 -6.50192 37088 ft 478 kts 114°
2026-05-04 19:32 53.53566 -6.40072 37085 ft 477 kts 114°
2026-05-04 19:32 53.50754 -6.29995 37082 ft 476 kts 114°
2026-05-04 19:33 53.47937 -6.19946 37089 ft 475 kts 114°
2026-05-04 19:33 53.45118 -6.09929 37084 ft 474 kts 114°
2026-05-04 19:34 53.42313 -6.00006 37078 ft 473 kts 114°
2026-05-04 19:34 53.39536 -5.90223 37082 ft 473 kts 114°
2026-05-04 19:35 53.36698 -5.80264 37083 ft 473 kts 114°
2026-05-04 19:35 53.33855 -5.70330 37086 ft 473 kts 114°
2026-05-04 19:36 53.31005 -5.60410 37088 ft 473 kts 114°
2026-05-04 19:36 53.28614 -5.50192 37084 ft 472 kts 103°
2026-05-04 19:37 53.27594 -5.39462 37083 ft 470 kts 91°
2026-05-04 19:37 53.27378 -5.28535 37088 ft 471 kts 91°
2026-05-04 19:38 53.27101 -5.17595 37084 ft 471 kts 92°
2026-05-04 19:38 53.26742 -5.06650 37088 ft 472 kts 92°
2026-05-04 19:39 53.26371 -4.95891 37084 ft 472 kts 92°
2026-05-04 19:39 53.25993 -4.84943 37081 ft 472 kts 92°
2026-05-04 19:40 53.25608 -4.74015 37078 ft 471 kts 92°
2026-05-04 19:40 53.25234 -4.63096 37074 ft 471 kts 92°
2026-05-04 19:41 53.24864 -4.52173 37076 ft 471 kts 92°
2026-05-04 19:41 53.24486 -4.41310 37077 ft 471 kts 92°
2026-05-04 19:42 53.24094 -4.30406 37079 ft 471 kts 92°
2026-05-04 19:42 53.23690 -4.19492 37076 ft 471 kts 93°
2026-05-04 19:43 53.23279 -4.08584 37082 ft 471 kts 93°
2026-05-04 19:43 53.22864 -3.97861 37080 ft 472 kts 93°
2026-05-04 19:44 53.22415 -3.86937 37080 ft 472 kts 93°
2026-05-04 19:44 53.21954 -3.75993 37082 ft 473 kts 93°
2026-05-04 19:45 53.21094 -3.65128 37082 ft 474 kts 104°
2026-05-04 19:45 53.18697 -3.54877 37079 ft 476 kts 118°
2026-05-04 19:46 53.15379 -3.45337 37079 ft 476 kts 119°
2026-05-04 19:46 53.12017 -3.35850 37078 ft 475 kts 119°
2026-05-04 19:47 53.08691 -3.26348 37072 ft 475 kts 119°
2026-05-04 19:47 53.05402 -3.16906 37075 ft 474 kts 119°
2026-05-04 19:48 53.02091 -3.07422 37067 ft 474 kts 119°
2026-05-04 19:48 52.98797 -2.98031 37066 ft 474 kts 119°
2026-05-04 19:49 52.95494 -2.88654 37078 ft 473 kts 119°
2026-05-04 19:49 52.92167 -2.79243 37050 ft 473 kts 120°
2026-05-04 19:50 52.88836 -2.69855 37055 ft 472 kts 120°
2026-05-04 19:50 52.85504 -2.60492 37049 ft 472 kts 120°
2026-05-04 19:51 52.82151 -2.51138 37040 ft 473 kts 122°
2026-05-04 19:51 52.78907 -2.43849 37042 ft 474 kts 131°
2026-05-04 19:52 52.74447 -2.35816 37052 ft 475 kts 132°
2026-05-04 19:52 52.69962 -2.27790 37056 ft 476 kts 132°
2026-05-04 19:53 52.65490 -2.19725 37050 ft 476 kts 132°
2026-05-04 19:53 52.61020 -2.11650 37046 ft 477 kts 132°
2026-05-04 19:54 52.56548 -2.03594 37048 ft 477 kts 132°
2026-05-04 19:54 52.52147 -1.95696 37038 ft 477 kts 133°
2026-05-04 19:55 52.47674 -1.87696 37050 ft 477 kts 133°
2026-05-04 19:55 52.43182 -1.79688 37051 ft 478 kts 133°
2026-05-04 19:56 52.38670 -1.71666 37052 ft 478 kts 133°
2026-05-04 19:56 52.34147 -1.63684 37049 ft 479 kts 134°
2026-05-04 19:57 52.29532 -1.55796 37051 ft 479 kts 134°
2026-05-04 19:57 52.24935 -1.48002 37052 ft 479 kts 134°
2026-05-04 19:58 52.20313 -1.40158 37051 ft 478 kts 135°
2026-05-04 19:58 52.15700 -1.32340 37048 ft 478 kts 135°
2026-05-04 19:59 52.11085 -1.24539 37044 ft 478 kts 135°
2026-05-04 19:59 52.06490 -1.16796 37052 ft 477 kts 135°
2026-05-04 20:00 52.01861 -1.09045 37047 ft 477 kts 136°
2026-05-04 20:00 51.97074 -1.01646 37054 ft 475 kts 139°
2026-05-04 20:01 51.92201 -0.94657 37044 ft 474 kts 140°
2026-05-04 20:01 51.87262 -0.87578 37047 ft 474 kts 140°
2026-05-04 20:02 51.82358 -0.80532 37043 ft 473 kts 140°
2026-05-04 20:02 51.77433 -0.73467 37045 ft 473 kts 140°
2026-05-04 20:03 51.72499 -0.66414 37032 ft 473 kts 140°
2026-05-04 20:03 51.67554 -0.59364 37026 ft 474 kts 140°
2026-05-04 20:04 51.63087 -0.51654 37028 ft 476 kts 125°
2026-05-04 20:04 51.60109 -0.42103 37021 ft 480 kts 110°
2026-05-04 20:05 51.58044 -0.31895 37020 ft 481 kts 109°
2026-05-04 20:05 51.55991 -0.21623 37028 ft 481 kts 109°
2026-05-04 20:06 51.53890 -0.11428 37026 ft 481 kts 110°
2026-05-04 20:06 51.51748 -0.01233 37037 ft 481 kts 110°
2026-05-04 20:07 51.49655 0.08654 37020 ft 482 kts 110°
2026-05-04 20:07 51.47487 0.18857 37022 ft 482 kts 110°
2026-05-04 20:08 51.45309 0.29063 37026 ft 483 kts 110°
2026-05-04 20:08 51.43136 0.39198 37026 ft 483 kts 110°
2026-05-04 20:09 51.40937 0.49406 37015 ft 483 kts 111°
2026-05-04 20:09 51.38731 0.59591 37022 ft 483 kts 111°
2026-05-04 20:10 51.36527 0.69718 37026 ft 484 kts 111°
2026-05-04 20:10 51.34304 0.79882 37027 ft 484 kts 111°
2026-05-04 20:11 51.32072 0.90040 37023 ft 484 kts 111°
2026-05-04 20:11 51.29846 1.00132 37015 ft 484 kts 111°
2026-05-04 20:12 51.27825 1.10298 37028 ft 484 kts 107°
2026-05-04 20:12 51.26174 1.20679 37024 ft 485 kts 106°
2026-05-04 20:13 51.24518 1.31131 37027 ft 485 kts 106°
2026-05-04 20:13 51.22828 1.41564 37022 ft 485 kts 107°
2026-05-04 20:14 51.21127 1.51920 37019 ft 484 kts 107°
2026-05-04 20:14 51.19407 1.62322 37023 ft 484 kts 107°
2026-05-04 20:15 51.17682 1.72707 37019 ft 484 kts 107°
2026-05-04 20:15 51.15945 1.83104 37019 ft 484 kts 107°
2026-05-04 20:16 51.14204 1.93467 37012 ft 484 kts 107°
2026-05-04 20:16 51.12820 2.03686 37016 ft 487 kts 98°
2026-05-04 20:17 51.12260 2.14456 37023 ft 488 kts 96°
2026-05-04 20:17 51.11742 2.25172 37016 ft 488 kts 97°
2026-05-04 20:18 51.11163 2.35941 37009 ft 488 kts 97°
2026-05-04 20:18 51.10557 2.46729 36998 ft 489 kts 97°
2026-05-04 20:19 51.09928 2.57503 36996 ft 489 kts 99°
2026-05-04 20:19 51.08044 2.67810 37003 ft 484 kts 117°
2026-05-04 20:20 51.04614 2.76864 37005 ft 480 kts 127°
2026-05-04 20:20 51.00748 2.85542 36998 ft 481 kts 128°
2026-05-04 20:21 50.96893 2.94239 37010 ft 482 kts 127°
2026-05-04 20:21 50.91230 3.07165 36991 ft 482 kts 127°
2026-05-04 20:22 50.87398 3.15909 36985 ft 482 kts 127°
2026-05-04 20:22 50.83582 3.24581 36980 ft 482 kts 127°
2026-05-04 20:23 50.79740 3.33279 36968 ft 481 kts 128°
2026-05-04 20:23 50.75901 3.41942 36975 ft 480 kts 128°
2026-05-04 20:24 50.72063 3.50573 36973 ft 480 kts 128°
2026-05-04 20:24 50.68225 3.59176 36969 ft 479 kts 128°
2026-05-04 20:25 50.64382 3.67764 36973 ft 479 kts 128°
2026-05-04 20:25 50.60534 3.76337 36953 ft 479 kts 128°
2026-05-04 20:26 50.56702 3.84865 36960 ft 479 kts 127°
2026-05-04 20:26 50.53023 3.93625 36971 ft 480 kts 126°
2026-05-04 20:27 50.49516 4.02239 36971 ft 481 kts 126°
2026-05-04 20:27 50.45882 4.11085 36970 ft 482 kts 126°
2026-05-04 20:28 50.42204 4.19927 36967 ft 483 kts 126°
2026-05-04 20:28 50.38517 4.28735 36968 ft 483 kts 126°
2026-05-04 20:29 50.34821 4.37534 36970 ft 483 kts 126°
2026-05-04 20:29 50.31147 4.46255 36960 ft 483 kts 126°
2026-05-04 20:30 50.27432 4.55045 36964 ft 483 kts 126°
2026-05-04 20:30 50.23721 4.63796 36972 ft 482 kts 127°
2026-05-04 20:31 50.20031 4.72472 36968 ft 482 kts 127°
2026-05-04 20:31 50.16316 4.81175 36974 ft 481 kts 127°
2026-05-04 20:32 50.12597 4.89860 36963 ft 481 kts 127°
2026-05-04 20:32 50.08876 4.98518 36975 ft 480 kts 127°
2026-05-04 20:33 50.05854 5.05531 36958 ft 480 kts 127°
2026-05-04 20:33 50.02126 5.14157 36964 ft 479 kts 127°
2026-05-04 20:34 49.98419 5.22706 36967 ft 479 kts 127°
2026-05-04 20:34 49.94688 5.31281 36969 ft 479 kts 128°
2026-05-04 20:35 49.90951 5.39844 36971 ft 479 kts 128°
2026-05-04 20:35 49.87225 5.48354 36951 ft 479 kts 128°
2026-05-04 20:36 49.83470 5.56902 36952 ft 478 kts 128°
2026-05-04 20:36 49.79718 5.65415 36963 ft 478 kts 128°
2026-05-04 20:37 49.75952 5.73933 36966 ft 479 kts 128°
2026-05-04 20:37 49.72181 5.82437 36965 ft 480 kts 128°
2026-05-04 20:38 49.68397 5.90941 36960 ft 480 kts 128°
2026-05-04 20:38 49.64635 5.99370 36960 ft 480 kts 128°
2026-05-04 20:39 49.60925 6.07659 36966 ft 479 kts 128°
2026-05-04 20:39 49.57130 6.16107 36961 ft 479 kts 128°
2026-05-04 20:40 49.53324 6.24558 36969 ft 479 kts 128°
2026-05-04 20:40 49.49531 6.32930 36961 ft 478 kts 130°
2026-05-04 20:41 49.47355 6.36754 36977 ft 472 kts 141°
2026-05-04 20:41 49.44830 6.39932 36977 ft 467 kts 148°
2026-05-04 20:41 49.39139 6.44537 36991 ft 461 kts 160°
2026-05-04 20:42 49.33226 6.48408 36961 ft 462 kts 160°
2026-05-04 20:42 49.27315 6.52327 36981 ft 463 kts 159°
2026-05-04 20:43 49.21450 6.56272 36983 ft 464 kts 159°
2026-05-04 20:43 49.15532 6.60258 36985 ft 464 kts 159°
2026-05-04 20:44 49.09603 6.64241 36968 ft 464 kts 159°
2026-05-04 20:44 49.03718 6.68181 36985 ft 464 kts 159°
2026-05-04 20:45 48.97797 6.72136 36986 ft 464 kts 159°
2026-05-04 20:45 48.91891 6.76154 36988 ft 465 kts 159°
2026-05-04 20:46 48.86018 6.80179 36981 ft 465 kts 159°
2026-05-04 20:46 48.80096 6.84222 36991 ft 465 kts 159°
2026-05-04 20:47 48.74196 6.88231 36991 ft 465 kts 159°
2026-05-04 20:47 48.68323 6.92209 36990 ft 465 kts 159°
2026-05-04 20:48 48.62412 6.96201 36974 ft 465 kts 159°
2026-05-04 20:48 48.56591 7.00123 36989 ft 464 kts 159°
2026-05-04 20:49 48.50720 7.04070 36988 ft 464 kts 159°
2026-05-04 20:49 48.44806 7.08034 36995 ft 465 kts 159°
2026-05-04 20:50 48.38882 7.11994 36989 ft 465 kts 159°
2026-05-04 20:50 48.32957 7.15946 36994 ft 465 kts 159°
2026-05-04 20:51 48.27067 7.19865 36992 ft 465 kts 159°
2026-05-04 20:51 48.21147 7.23794 36997 ft 466 kts 159°
2026-05-04 20:52 48.15214 7.27722 36981 ft 466 kts 159°
2026-05-04 20:52 48.09308 7.31621 36991 ft 466 kts 159°
2026-05-04 20:53 48.03362 7.35536 36996 ft 466 kts 160°
2026-05-04 20:53 47.97438 7.39428 36982 ft 467 kts 160°
2026-05-04 20:54 47.91490 7.43326 36995 ft 467 kts 160°
2026-05-04 20:54 47.85528 7.47223 36993 ft 468 kts 160°
2026-05-04 20:55 47.79559 7.51117 36993 ft 468 kts 160°
2026-05-04 20:55 47.73588 7.55003 36992 ft 468 kts 160°
2026-05-04 20:56 47.67664 7.59088 36979 ft 470 kts 158°
2026-05-04 20:56 47.61796 7.63276 36991 ft 470 kts 158°
2026-05-04 20:57 47.55902 7.67457 36997 ft 469 kts 158°
2026-05-04 20:57 47.50002 7.71602 36987 ft 469 kts 159°
2026-05-04 20:58 47.44096 7.75728 37001 ft 468 kts 159°
2026-05-04 20:58 47.38233 7.79812 36994 ft 469 kts 159°
2026-05-04 20:59 47.32327 7.83918 36990 ft 469 kts 159°
2026-05-04 20:59 47.26418 7.88018 37001 ft 468 kts 159°
2026-05-04 21:00 47.20513 7.92102 36996 ft 469 kts 159°
2026-05-04 21:00 47.14634 7.96159 36995 ft 468 kts 159°
2026-05-04 21:01 47.08865 8.00132 36994 ft 469 kts 159°
2026-05-04 21:01 47.02958 8.04190 37003 ft 469 kts 159°
2026-05-04 21:02 46.97047 8.08239 37028 ft 470 kts 159°
2026-05-04 21:02 46.91144 8.12274 37004 ft 471 kts 159°
2026-05-04 21:03 46.85197 8.16328 37003 ft 471 kts 159°
2026-05-04 21:03 46.79249 8.20376 36964 ft 471 kts 158°
2026-05-04 21:04 46.73329 8.24390 37027 ft 470 kts 159°
2026-05-04 21:04 46.67413 8.28395 37040 ft 471 kts 159°
2026-05-04 21:05 46.61458 8.32415 37038 ft 472 kts 159°
2026-05-04 21:05 46.55527 8.36411 37030 ft 472 kts 159°
2026-05-04 21:06 46.49552 8.40432 37061 ft 470 kts 159°
2026-05-04 21:06 46.43610 8.44410 37081 ft 469 kts 159°
2026-05-04 21:07 46.37707 8.48356 37081 ft 469 kts 159°
2026-05-04 21:07 46.31775 8.52314 37083 ft 470 kts 159°
2026-05-04 21:08 46.25817 8.56279 37089 ft 470 kts 159°
2026-05-04 21:08 46.19905 8.60206 37072 ft 470 kts 159°
2026-05-04 21:09 46.13992 8.64236 37068 ft 470 kts 152°
2026-05-04 21:09 46.11366 8.67101 37089 ft 476 kts 139°
2026-05-04 21:09 46.09201 8.70723 37081 ft 482 kts 127°
2026-05-04 21:10 46.06253 8.79423 37101 ft 488 kts 116°
2026-05-04 21:10 46.03601 8.88475 37102 ft 490 kts 116°
2026-05-04 21:11 46.00890 8.97501 37091 ft 492 kts 117°
2026-05-04 21:11 45.98178 9.06322 37097 ft 493 kts 117°
2026-05-04 21:12 45.95380 9.15335 37080 ft 494 kts 117°
2026-05-04 21:12 45.92591 9.24292 37071 ft 493 kts 117°
2026-05-04 21:13 45.89782 9.33288 37045 ft 494 kts 117°
2026-05-04 21:13 45.86963 9.42296 37050 ft 494 kts 117°
2026-05-04 21:14 45.84139 9.51287 37035 ft 493 kts 117°
2026-05-04 21:14 45.81327 9.60203 37044 ft 493 kts 117°
2026-05-04 21:15 45.78490 9.69168 37053 ft 493 kts 117°
2026-05-04 21:15 45.75647 9.78121 37078 ft 494 kts 117°
2026-05-04 21:16 45.72801 9.87059 36436 ft 502 kts 117°
2026-05-04 21:16 45.71343 9.91619 35757 ft 503 kts 117°
2026-05-04 21:16 45.69900 9.96130 34950 ft 504 kts 117°
2026-05-04 21:17 45.68457 10.00634 34124 ft 505 kts 117°
2026-05-04 21:17 45.67023 10.05168 33170 ft 508 kts 115°
2026-05-04 21:17 45.65878 10.09964 32222 ft 511 kts 107°
2026-05-04 21:17 45.65130 10.14951 31259 ft 514 kts 101°
2026-05-04 21:18 45.64753 10.20034 30367 ft 517 kts 93°
2026-05-04 21:18 45.64751 10.25153 29673 ft 511 kts 91°
2026-05-04 21:18 45.64798 10.30206 28973 ft 505 kts 91°
2026-05-04 21:18 45.64834 10.35199 28323 ft 499 kts 91°
2026-05-04 21:19 45.64842 10.38481 27903 ft 496 kts 91°
2026-05-04 21:19 45.64834 10.43377 27281 ft 490 kts 92°
2026-05-04 21:19 45.64814 10.48245 26647 ft 486 kts 92°
2026-05-04 21:19 45.64796 10.53047 26038 ft 481 kts 92°
2026-05-04 21:20 45.64795 10.57815 25428 ft 477 kts 92°
2026-05-04 21:20 45.64799 10.62542 24820 ft 473 kts 91°
2026-05-04 21:20 45.64777 10.67235 24221 ft 469 kts 92°
2026-05-04 21:20 45.64723 10.71833 23617 ft 466 kts 92°
2026-05-04 21:21 45.64664 10.76437 22924 ft 462 kts 92°
2026-05-04 21:21 45.64609 10.81016 22292 ft 458 kts 92°
2026-05-04 21:21 45.64562 10.85539 21689 ft 453 kts 92°
2026-05-04 21:21 45.64524 10.90022 21099 ft 449 kts 92°
2026-05-04 21:22 45.64483 10.94467 20536 ft 444 kts 92°
2026-05-04 21:22 45.64321 10.98843 19960 ft 438 kts 99°
2026-05-04 21:22 45.63657 11.02933 19409 ft 433 kts 109°
2026-05-04 21:22 45.62536 11.06899 18836 ft 428 kts 118°
2026-05-04 21:23 45.61026 11.10492 18283 ft 424 kts 125°
2026-05-04 21:23 45.59412 11.14000 17628 ft 422 kts 124°
2026-05-04 21:23 45.57816 11.17501 17035 ft 418 kts 124°
2026-05-04 21:23 45.56243 11.20976 16441 ft 415 kts 124°
2026-05-04 21:24 45.54680 11.24437 15888 ft 411 kts 124°
2026-05-04 21:24 45.53143 11.27844 15385 ft 406 kts 124°
2026-05-04 21:24 45.51621 11.31214 14840 ft 402 kts 124°
2026-05-04 21:24 45.50115 11.34548 14340 ft 398 kts 124°
2026-05-04 21:25 45.48638 11.37812 13879 ft 392 kts 125°
2026-05-04 21:25 45.47181 11.41032 13701 ft 378 kts 125°
2026-05-04 21:25 45.45783 11.44118 13596 ft 363 kts 125°
2026-05-04 21:25 45.44435 11.47088 13482 ft 349 kts 125°
2026-05-04 21:26 45.43141 11.49934 13388 ft 337 kts 125°
2026-05-04 21:26 45.41784 11.52613 12991 ft 332 kts 133°
2026-05-04 21:26 45.40226 11.55023 12605 ft 328 kts 136°
2026-05-04 21:26 45.38667 11.57362 12307 ft 323 kts 135°
2026-05-04 21:27 45.37154 11.59688 12023 ft 317 kts 134°
2026-05-04 21:27 45.35688 11.61989 11764 ft 309 kts 131°
2026-05-04 21:27 45.34633 11.64624 11510 ft 310 kts 109°
2026-05-04 21:27 45.34339 11.67694 11277 ft 320 kts 90°
2026-05-04 21:28 45.34502 11.70826 11026 ft 323 kts 88°
2026-05-04 21:28 45.34682 11.74007 10785 ft 320 kts 88°
2026-05-04 21:28 45.34841 11.77153 10486 ft 316 kts 89°
2026-05-04 21:28 45.34987 11.80243 10221 ft 311 kts 89°
2026-05-04 21:29 45.34855 11.83204 9990 ft 292 kts 110°
2026-05-04 21:29 45.33980 11.85737 9733 ft 282 kts 130°
2026-05-04 21:29 45.32714 11.87818 9497 ft 274 kts 134°
2026-05-04 21:29 45.31293 11.89509 9227 ft 262 kts 156°
2026-05-04 21:30 45.29572 11.90085 9031 ft 252 kts 181°
2026-05-04 21:30 45.27883 11.89705 9077 ft 245 kts 195°
2026-05-04 21:30 45.26339 11.88637 9066 ft 250 kts 216°
2026-05-04 21:30 45.24994 11.87019 9071 ft 256 kts 220°
2026-05-04 21:31 45.22380 11.83618 9061 ft 253 kts 220°
2026-05-04 21:31 45.21080 11.81944 9058 ft 251 kts 220°
2026-05-04 21:31 45.19788 11.80304 9060 ft 249 kts 220°
2026-05-04 21:32 45.18497 11.78678 9061 ft 248 kts 219°
2026-05-04 21:32 45.17206 11.77057 9062 ft 248 kts 219°
2026-05-04 21:32 45.15910 11.75429 9089 ft 249 kts 219°
2026-05-04 21:32 45.14626 11.73822 9107 ft 248 kts 219°
2026-05-04 21:33 45.13325 11.72221 9099 ft 246 kts 214°
2026-05-04 21:33 45.11806 11.71326 9082 ft 232 kts 185°
2026-05-04 21:33 45.10240 11.71574 9022 ft 228 kts 163°
2026-05-04 21:33 45.08810 11.72574 8778 ft 230 kts 142°
2026-05-04 21:34 45.07676 11.74162 8572 ft 229 kts 134°
2026-05-04 21:34 45.06828 11.76039 8363 ft 230 kts 109°
2026-05-04 21:34 45.06740 11.78306 8184 ft 237 kts 82°
2026-05-04 21:34 45.07376 11.80448 7994 ft 243 kts 54°
2026-05-04 21:35 45.08571 11.82158 7810 ft 246 kts 43°
2026-05-04 21:35 45.09883 11.83750 7597 ft 249 kts 43°
2026-05-04 21:35 45.11193 11.85340 7382 ft 246 kts 43°
2026-05-04 21:35 45.12480 11.86902 7156 ft 241 kts 43°
2026-05-04 21:36 45.13737 11.88454 6968 ft 237 kts 43°
2026-05-04 21:36 45.14968 11.89989 6770 ft 234 kts 43°
2026-05-04 21:36 45.16185 11.91515 6565 ft 236 kts 44°
2026-05-04 21:36 45.17425 11.93074 6323 ft 239 kts 44°
2026-05-04 21:37 45.18666 11.94601 6095 ft 239 kts 42°
2026-05-04 21:37 45.19929 11.96121 5902 ft 236 kts 43°
2026-05-04 21:37 45.21163 11.97648 5680 ft 234 kts 43°
2026-05-04 21:37 45.22371 11.99167 5496 ft 231 kts 43°
2026-05-04 21:38 45.23529 12.00636 5304 ft 228 kts 44°
2026-05-04 21:38 45.24693 12.02118 5128 ft 226 kts 44°
2026-05-04 21:38 45.25859 12.03606 4940 ft 224 kts 43°
2026-05-04 21:38 45.27022 12.05090 4755 ft 227 kts 43°
2026-05-04 21:39 45.28210 12.06607 4570 ft 231 kts 43°
2026-05-04 21:39 45.29411 12.08141 4349 ft 232 kts 43°
2026-05-04 21:39 45.30611 12.09673 4175 ft 231 kts 43°
2026-05-04 21:39 45.31791 12.11181 3976 ft 231 kts 43°
2026-05-04 21:40 45.32979 12.12679 3788 ft 225 kts 41°
2026-05-04 21:40 45.34144 12.14144 3543 ft 221 kts 42°
2026-05-04 21:40 45.35277 12.15578 3295 ft 215 kts 42°
2026-05-04 21:40 45.36372 12.16964 2933 ft 205 kts 41°
2026-05-04 21:41 45.37428 12.18293 2623 ft 201 kts 41°
2026-05-04 21:41 45.38444 12.19642 2514 ft 202 kts 44°
2026-05-04 21:41 45.39460 12.21062 2507 ft 206 kts 43°
2026-05-04 21:41 45.40523 12.22456 2440 ft 209 kts 42°
2026-05-04 21:42 45.41617 12.23841 2239 ft 210 kts 41°
2026-05-04 21:42 45.42705 12.25203 1881 ft 212 kts 41°
2026-05-04 21:42 45.43792 12.26549 1582 ft 197 kts 40°
2026-05-04 21:42 45.44781 12.27767 1333 ft 178 kts 42°
2026-05-04 21:43 45.45653 12.28905 971 ft 161 kts 44°
2026-05-04 21:43 45.46437 12.29918 732 ft 147 kts 44°
2026-05-04 21:43 45.47180 12.30879 610 ft 147 kts 44°
2026-05-04 21:43 45.47936 12.31858 465 ft 146 kts 44°
2026-05-04 21:44 45.48683 12.32827 235 ft 143 kts 45°
2026-05-04 21:44 45.49413 12.33769 92 ft 142 kts 43°
2026-05-04 21:44 45.50149 12.34716 39 ft 143 kts 44°
2026-05-04 21:44 45.50831 12.35595 22 ft 113 kts 42°
2026-05-04 21:45 45.51235 12.36113 18 ft 54 kts 42°
2026-05-04 21:45 45.51489 12.36441 22 ft 46 kts 42°
2026-05-04 21:45 45.51625 12.36531 20 ft 17 kts 324°
2026-05-04 21:45 45.51679 12.36391 22 ft 17 kts 263°
2026-05-04 21:46 45.51613 12.36255 27 ft 17 kts 224°
2026-05-04 21:46 45.51526 12.36139 27 ft 17 kts 222°
2026-05-04 21:46 45.51433 12.36023 22 ft 19 kts 221°
2026-05-04 21:46 45.51333 12.35897 19 ft 21 kts 221°
2026-05-04 21:47 45.51195 12.35719 18 ft 33 kts 222°
2026-05-04 21:47 45.51028 12.35501 23 ft 29 kts 226°
2026-05-04 21:47 45.50954 12.35234 26 ft 29 kts 248°
2026-05-04 21:47 45.50814 12.35023 24 ft 31 kts 221°
2026-05-04 21:48 45.50649 12.34812 19 ft 33 kts 222°
2026-05-04 21:48 45.50480 12.34595 27 ft 32 kts 222°
2026-05-04 21:48 45.50364 12.34442 29 ft 13 kts 235°
2026-05-04 21:48 45.50399 12.34340 27 ft 13 kts 330°
2026-05-04 21:49 45.50423 12.34284 25 ft 8 kts 278°
2026-05-04 21:49 45.50424 12.34221 23 ft 0 kts 266°